TimeIST,TemperatureF,Dew PointF,Humidity,Sea Level PressureIn,VisibilityMPH,Wind Direction,Wind SpeedMPH,Gust SpeedMPH,PrecipitationIn,Events,Conditions,WindDirDegrees,DateUTC
1:30 AM,57.2,55.4,94,29.86,1.9,Calm,Calm,-,N/A,,Mist,0,2012-11-07 20:00:00
2:00 AM,57.2,55.4,94,29.86,1.9,Calm,Calm,-,N/A,,Mist,0,2012-11-07 20:30:00
2:30 AM,55,53,92,29.86,1,Calm,Calm,,,,Mist,,2012-11-07 21:00:00
3:00 AM,53.6,51.8,94,29.83,0.9,Calm,Calm,-,N/A,,Mist,0,2012-11-07 21:30:00
3:30 AM,53.6,51.8,94,29.83,0.9,Calm,Calm,-,N/A,,Mist,0,2012-11-07 22:00:00
4:30 AM,53.6,51.8,94,29.83,0.9,Calm,Calm,-,N/A,,Mist,0,2012-11-07 23:00:00
5:30 AM,,51,,29.84,1,North,9.2,,,,Mist,10,2012-11-08 00:00:00
6:00 AM,50.0,50.0,100,29.83,0.6,Calm,Calm,-,N/A,,Mist,0,2012-11-08 00:30:00
8:30 AM,54,52,92,29.88,1,Calm,Calm,,,,Mist,,2012-11-08 03:00:00
9:00 AM,59.0,55.4,88,29.89,0.6,Calm,Calm,-,N/A,,Mist,0,2012-11-08 03:30:00
11:00 AM,75.2,55.4,50,29.89,1.9,WNW,4.6,-,N/A,,Haze,290,2012-11-08 05:30:00
11:30 AM,77,56,37,29.87,2,West,5.8,,,,Smoke,270,2012-11-08 06:00:00
11:30 AM,77.0,55.4,47,29.89,2.5,West,5.8,-,N/A,,Smoke,270,2012-11-08 06:00:00
2:30 PM,81,53,27,29.80,2,WNW,5.8,,,,Smoke,290,2012-11-08 09:00:00
3:30 PM,82.4,53.6,37,29.83,2.5,WNW,5.8,-,N/A,,Smoke,290,2012-11-08 10:00:00
4:00 PM,82.4,53.6,37,29.83,2.5,Variable,3.5,-,N/A,,Smoke,0,2012-11-08 10:30:00
4:30 PM,82.4,53.6,37,29.83,2.5,Variable,2.3,-,N/A,,Smoke,0,2012-11-08 11:00:00
5:30 PM,78,58,39,29.81,1,Calm,Calm,,,,Smoke,,2012-11-08 12:00:00
6:00 PM,77.0,57.2,50,29.83,1.9,Calm,Calm,-,N/A,,Smoke,0,2012-11-08 12:30:00
6:30 PM,77.0,57.2,50,29.83,1.9,Calm,Calm,-,N/A,,Haze,0,2012-11-08 13:00:00
7:00 PM,73.4,59.0,61,29.86,1.9,Calm,Calm,-,N/A,,Haze,0,2012-11-08 13:30:00
8:30 PM,69.8,62.6,78,29.86,1.9,Calm,Calm,-,N/A,,Mist,0,2012-11-08 15:00:00
9:30 PM,66.2,60.8,83,29.89,1.6,Calm,Calm,-,N/A,,Mist,0,2012-11-08 16:00:00
11:30 PM,60.8,57.2,88,29.89,1.2,Calm,Calm,-,N/A,,Mist,0,2012-11-08 18:00:00